This is the latest recevied weather packets stored in our database for station/object KJ6APE. If no packets are shown the sender has not sent any weather packets the latest 10 day(s).
| Time | Temp. | Humidity | Pressure | Rain* | Wind** | Luminosity | Snow |
|---|---|---|---|---|---|---|---|
| 1777605151 | 16.67° C | 63% | 1013.3 hPa | 0 mm | - | 1 W/m² | - |
| 1777604846 | 17.22° C | 62% | 1013.1 hPa | 0 mm | - | 1 W/m² | - |
| 1777604542 | 17.22° C | 61% | 1012.9 hPa | 0 mm | - | 3 W/m² | - |
| 1777604237 | 17.78° C | 61% | 1012.9 hPa | 0 mm | - | 5 W/m² | - |
| 1777603933 | 17.78° C | 60% | 1012.9 hPa | 0 mm | - | 8 W/m² | - |
| 1777603631 | 18.33° C | 59% | 1012.8 hPa | 0 mm | - | 12 W/m² | - |
| 1777603327 | 18.89° C | 59% | 1012.8 hPa | 0 mm | - | 17 W/m² | - |
| 1777603022 | 18.89° C | 58% | 1012.9 hPa | 0 mm | - | 22 W/m² | - |
| 1777602718 | 19.44° C | 57% | 1012.7 hPa | 0 mm | - | 30 W/m² | - |
| 1777602412 | 19.44° C | 55% | 1012.8 hPa | 0 mm | - | 36 W/m² | - |
| 1777602109 | 20° C | 55% | 1012.6 hPa | 0 mm | - | 42 W/m² | - |
| 1777601804 | 20.56° C | 54% | 1012.6 hPa | 0 mm | - | 53 W/m² | - |
| 1777601500 | 21.11° C | 54% | 1012.8 hPa | 0 mm | - | 54 W/m² | - |
| 1777601195 | 21.11° C | 53% | 1012.5 hPa | 0 mm | - | 65 W/m² | - |
| 1777600894 | 21.67° C | 51% | 1012.6 hPa | 0 mm | - | 75 W/m² | - |
| 1777600588 | 22.22° C | 50% | 1012.4 hPa | 0 mm | - | 85 W/m² | - |
| 1777600285 | 22.78° C | 49% | 1012.4 hPa | 0 mm | - | 93 W/m² | - |
| 1777599981 | 23.33° C | 48% | 1012.4 hPa | 0 mm | - | 109 W/m² | - |
| 1777599677 | 23.89° C | 46% | 1012.5 hPa | 0 mm | - | 124 W/m² | - |
| 1777599373 | 23.33° C | 47% | 1012.4 hPa | 0 mm | - | 157 W/m² | - |
| 1777599071 | 24.44° C | 46% | 1012.4 hPa | 0 mm | - | 172 W/m² | - |
| 1777598768 | 24.44° C | 45% | 1012.7 hPa | 0 mm | - | 201 W/m² | - |
| 1777598463 | 25° C | 44% | 1012.4 hPa | 0 mm | - | 234 W/m² | - |
| 1777598162 | 24.44° C | 45% | 1012.3 hPa | 0 mm | - | 254 W/m² | - |
| 1777597857 | 25° C | 44% | 1012.2 hPa | 0 mm | - | 277 W/m² | - |
* Rain latest hour (hover to see other rain measurements)
** Current wind speed in m/s (hover to see current wind gust speed)